カタログに戻る

FENGYUN 1C DEB

運用中SSO
NORAD 30117·DEBRIS·🇨🇳 China

打ち上げ May 10, 1999 から Taiyuan Satellite Launch Center

Loading…

次のパス (今後24時間)

TLE

最新Source: Space-Track

元期: Sep 14, 2026, 09:54 UTC

1 30117U 99025RW  26257.41280578  .00000208  00000-0  13149-3 0  9995
2 30117  98.8278 244.2628 0164270 153.4229   4.7091 14.07351020  8664

AllMySatでFENGYUN 1C DEBをリアルタイム追跡

Download on the App Store